Find Starlink 5256

NORAD ID: 54175 Int'l Des: 2022-141 Owner: SPXS Country: US Constellation: starlink operational
LEOCIRCULAR

实时位置

正在加载3D地球...

关于 Starlink 5256

正在加载描述...

即将过境

Passes for default location (London). Set your location on the main map for personalized predictions.

高度历史

Loading altitude history...

两行轨道根数

1 54175U 22141U 26122.98140924 -.00000401 00000-0 -71066-5 0 9994
2 54175 53.2154 120.4069 0001238 81.3393 278.7739 15.08849232194051
Epoch: May 2, 2026 • Age: 4 hours

当前状态

高度 545.4 km
速度 7.60 km/s
星下点 52.98°N, 49.04°W
发射日期 Oct 28, 2022
运行时间 3.5 years
类型 internet

技术详情

分类 Payload
质量 305.00 kg
干质量 290.00 kg
总质量 305.00 kg
长度 0.20 m
直径 2.80 m
跨度 9.00 m
形状 Box + pan
制造商 SPXS
平台类型 Starlink
阶段状态 In Orbit
所有者/国家 SPXS/US

Most Searched